Time,TemperatureF,DewpointF,PressureIn,WindDirection,WindDirectionDegrees,WindSpeedMPH,WindSpeedGustMPH,Humidity,HourlyPrecipIn,Conditions,Clouds,dailyrainin,SoftwareType,DateUTC
2013-01-09 00:04:00,49.5,49.0,29.70,West,269,1.0,8.0,97,0.11,,,0.01,weatherlink.com 1.10,2013-01-09 08:04:00,
2013-01-09 00:19:00,49.4,49.0,29.70,South,170,1.0,4.0,97,0.14,,,0.06,weatherlink.com 1.10,2013-01-09 08:19:00,
2013-01-09 00:34:00,49.3,49.0,29.70,SSE,166,1.0,7.0,97,0.14,,,0.09,weatherlink.com 1.10,2013-01-09 08:34:00,
2013-01-09 00:49:00,49.2,49.0,29.71,SSW,212,0.0,7.0,98,0.16,,,0.14,weatherlink.com 1.10,2013-01-09 08:49:00,
2013-01-09 01:04:00,49.1,49.0,29.70,ESE,108,1.0,9.0,98,0.19,,,0.20,weatherlink.com 1.10,2013-01-09 09:04:00,
2013-01-09 01:19:00,48.9,48.0,29.70,SW,229,1.0,5.0,98,0.17,,,0.23,weatherlink.com 1.10,2013-01-09 09:19:00,
2013-01-09 01:34:00,48.3,47.0,29.71,SW,224,0.0,11.0,96,0.17,,,0.27,weatherlink.com 1.10,2013-01-09 09:34:00,
2013-01-09 01:49:00,46.6,46.0,29.72,SW,232,2.0,8.0,96,0.14,,,0.29,weatherlink.com 1.10,2013-01-09 09:49:00,
2013-01-09 02:04:00,45.8,45.0,29.71,SSW,201,2.0,7.0,97,0.10,,,0.30,weatherlink.com 1.10,2013-01-09 10:04:00,
2013-01-09 02:19:00,45.3,45.0,29.71,SSW,212,1.0,5.0,97,0.10,,,0.34,weatherlink.com 1.10,2013-01-09 10:19:00,
2013-01-09 02:34:00,45.0,45.0,29.72,SW,229,0.0,5.0,98,0.08,,,0.35,weatherlink.com 1.10,2013-01-09 10:34:00,
2013-01-09 02:49:00,44.7,44.0,29.71,SSW,207,0.0,5.0,97,0.10,,,0.39,weatherlink.com 1.10,2013-01-09 10:49:00,
2013-01-09 03:04:00,44.3,44.0,29.70,WSW,243,0.0,4.0,97,0.11,,,0.41,weatherlink.com 1.10,2013-01-09 11:04:00,
2013-01-09 03:19:00,43.9,43.0,29.70,SW,229,0.0,3.0,97,0.09,,,0.43,weatherlink.com 1.10,2013-01-09 11:19:00,
2013-01-09 03:34:00,43.7,43.0,29.70,SSW,209,1.0,3.0,98,0.09,,,0.45,weatherlink.com 1.10,2013-01-09 11:34:00,
2013-01-09 03:49:00,43.3,43.0,29.69,South,170,2.0,5.0,97,0.08,,,0.47,weatherlink.com 1.10,2013-01-09 11:49:00,
2013-01-09 04:04:00,43.1,42.0,29.68,SW,224,3.0,7.0,97,0.08,,,0.49,weatherlink.com 1.10,2013-01-09 12:04:00,
2013-01-09 04:19:00,43.0,42.0,29.68,SW,231,1.0,3.0,97,0.07,,,0.50,weatherlink.com 1.10,2013-01-09 12:19:00,
2013-01-09 04:35:00,43.0,42.0,29.67,East,101,0.0,6.0,97,0.05,,,0.50,weatherlink.com 1.10,2013-01-09 12:35:00,
2013-01-09 04:50:00,42.8,42.0,29.66,SSW,204,2.0,4.0,97,0.05,,,0.52,weatherlink.com 1.10,2013-01-09 12:50:00,
2013-01-09 05:05:00,42.7,42.0,29.65,WSW,237,0.0,2.0,98,0.04,,,0.53,weatherlink.com 1.10,2013-01-09 13:05:00,
2013-01-09 05:20:00,42.5,42.0,29.65,SSW,205,0.0,2.0,98,0.06,,,0.56,weatherlink.com 1.10,2013-01-09 13:20:00,
2013-01-09 05:35:00,42.1,41.0,29.65,South,186,0.0,2.0,97,0.06,,,0.56,weatherlink.com 1.10,2013-01-09 13:35:00,
2013-01-09 05:50:00,42.0,41.0,29.65,NW,316,0.0,2.0,97,0.05,,,0.57,weatherlink.com 1.10,2013-01-09 13:50:00,
2013-01-09 06:05:00,41.9,41.0,29.66,West,278,0.0,1.0,98,0.05,,,0.58,weatherlink.com 1.10,2013-01-09 14:05:00,
2013-01-09 06:20:00,41.8,41.0,29.66,West,281,0.0,3.0,97,0.04,,,0.60,weatherlink.com 1.10,2013-01-09 14:20:00,
2013-01-09 06:35:00,41.7,41.0,29.67,SE,136,0.0,1.0,97,0.06,,,0.62,weatherlink.com 1.10,2013-01-09 14:35:00,
2013-01-09 06:50:00,41.6,41.0,29.68,SW,218,0.0,2.0,97,0.06,,,0.63,weatherlink.com 1.10,2013-01-09 14:50:00,
2013-01-09 07:05:00,41.5,41.0,29.68,SE,146,0.0,3.0,97,0.08,,,0.66,weatherlink.com 1.10,2013-01-09 15:05:00,
2013-01-09 07:20:00,41.3,41.0,29.68,SW,229,0.0,1.0,98,0.09,,,0.69,weatherlink.com 1.10,2013-01-09 15:20:00,
2013-01-09 07:35:00,41.2,41.0,29.69,SW,226,1.0,1.0,98,0.11,,,0.73,weatherlink.com 1.10,2013-01-09 15:35:00,
2013-01-09 07:50:00,41.2,41.0,29.70,SSE,162,0.0,1.0,98,0.13,,,0.77,weatherlink.com 1.10,2013-01-09 15:50:00,
2013-01-09 08:05:00,41.1,41.0,29.70,SSE,164,0.0,0.0,98,0.15,,,0.81,weatherlink.com 1.10,2013-01-09 16:05:00,
2013-01-09 08:20:00,41.1,41.0,29.71,ESE,103,0.0,1.0,98,0.16,,,0.85,weatherlink.com 1.10,2013-01-09 16:20:00,
2013-01-09 08:35:00,41.1,41.0,29.71,SSE,153,0.0,1.0,98,0.14,,,0.87,weatherlink.com 1.10,2013-01-09 16:35:00,
2013-01-09 08:50:00,41.2,41.0,29.72,SSE,164,0.0,4.0,98,0.11,,,0.88,weatherlink.com 1.10,2013-01-09 16:50:00,
2013-01-09 09:05:00,41.2,41.0,29.72,ESE,108,0.0,2.0,98,0.08,,,0.89,weatherlink.com 1.10,2013-01-09 17:05:00,
2013-01-09 09:20:00,41.3,41.0,29.72,SSW,203,1.0,6.0,98,0.05,,,0.90,weatherlink.com 1.10,2013-01-09 17:20:00,
2013-01-09 09:35:00,41.4,41.0,29.72,SSE,153,3.0,6.0,98,0.03,,,0.90,weatherlink.com 1.10,2013-01-09 17:35:00,
2013-01-09 09:50:00,41.5,41.0,29.72,East,91,0.0,6.0,97,0.02,,,0.90,weatherlink.com 1.10,2013-01-09 17:50:00,
2013-01-09 10:05:00,41.7,41.0,29.72,SW,225,1.0,6.0,97,0.01,,,0.90,weatherlink.com 1.10,2013-01-09 18:05:00,
2013-01-09 10:20:00,41.9,41.0,29.73,SE,142,0.0,2.0,97,0.00,,,0.90,weatherlink.com 1.10,2013-01-09 18:20:00,
2013-01-09 10:35:00,41.9,41.0,29.73,SSE,161,1.0,5.0,97,0.00,,,0.90,weatherlink.com 1.10,2013-01-09 18:35:00,
2013-01-09 10:50:00,42.0,41.0,29.73,South,184,1.0,6.0,97,0.00,,,0.90,weatherlink.com 1.10,2013-01-09 18:50:00,
2013-01-09 11:05:00,42.2,41.0,29.74,SSW,212,0.0,6.0,96,0.00,,,0.90,weatherlink.com 1.10,2013-01-09 19:05:00,
2013-01-09 11:20:00,42.5,42.0,29.74,SE,139,2.0,8.0,96,0.00,,,0.90,weatherlink.com 1.10,2013-01-09 19:20:00,
2013-01-09 11:36:00,42.8,42.0,29.73,SW,225,1.0,5.0,96,0.00,,,0.90,weatherlink.com 1.10,2013-01-09 19:36:00,
2013-01-09 11:50:00,43.2,42.0,29.73,SSE,153,0.0,2.0,96,0.00,,,0.90,weatherlink.com 1.10,2013-01-09 19:50:00,
2013-01-09 12:05:00,43.3,42.0,29.73,SW,215,0.0,5.0,95,0.00,,,0.90,weatherlink.com 1.10,2013-01-09 20:05:00,
2013-01-09 12:20:00,43.5,42.0,29.73,SSW,201,0.0,2.0,95,0.00,,,0.90,weatherlink.com 1.10,2013-01-09 20:20:00,
2013-01-09 12:35:00,43.6,42.0,29.73,SSW,193,0.0,3.0,94,0.00,,,0.90,weatherlink.com 1.10,2013-01-09 20:35:00,
2013-01-09 12:50:00,43.8,42.0,29.73,WSW,255,0.0,4.0,93,0.00,,,0.90,weatherlink.com 1.10,2013-01-09 20:50:00,
2013-01-09 13:05:00,44.0,42.0,29.73,SW,215,1.0,2.0,94,0.00,,,0.90,weatherlink.com 1.10,2013-01-09 21:05:00,
2013-01-09 13:20:00,44.1,42.0,29.74,SSW,195,0.0,2.0,93,0.00,,,0.90,weatherlink.com 1.10,2013-01-09 21:20:00,
2013-01-09 13:35:00,43.9,42.0,29.74,WSW,239,0.0,4.0,92,0.00,,,0.90,weatherlink.com 1.10,2013-01-09 21:35:00,
2013-01-09 13:50:00,43.9,42.0,29.75,West,273,0.0,4.0,91,0.00,,,0.90,weatherlink.com 1.10,2013-01-09 21:50:00,
2013-01-09 14:05:00,44.0,42.0,29.75,ESE,113,0.0,2.0,91,0.00,,,0.90,weatherlink.com 1.10,2013-01-09 22:05:00,
2013-01-09 14:20:00,44.2,42.0,29.76,SSW,205,0.0,2.0,92,0.00,,,0.90,weatherlink.com 1.10,2013-01-09 22:20:00,
2013-01-09 14:50:00,43.9,41.0,29.77,SSE,160,0.0,1.0,90,0.00,,,0.90,weatherlink.com 1.10,2013-01-09 22:50:00,
2013-01-09 15:05:00,43.7,41.0,29.78,SW,218,0.0,1.0,91,0.00,,,0.90,weatherlink.com 1.10,2013-01-09 23:05:00,
2013-01-09 15:20:00,43.1,40.0,29.78,South,188,0.0,4.0,89,0.00,,,0.90,weatherlink.com 1.10,2013-01-09 23:20:00,
2013-01-09 15:36:00,42.9,40.0,29.79,South,191,0.0,2.0,90,0.00,,,0.90,weatherlink.com 1.10,2013-01-09 23:36:00,
2013-01-09 15:51:00,42.7,40.0,29.80,ESE,121,0.0,2.0,90,0.00,,,0.90,weatherlink.com 1.10,2013-01-09 23:51:00,
2013-01-09 16:06:00,42.5,40.0,29.80,SSE,148,1.0,3.0,91,0.00,,,0.90,weatherlink.com 1.10,2013-01-10 00:06:00,
2013-01-09 16:21:00,42.3,40.0,29.81,East,86,0.0,3.0,91,0.00,,,0.90,weatherlink.com 1.10,2013-01-10 00:21:00,
2013-01-09 16:36:00,42.1,40.0,29.82,SE,139,0.0,2.0,91,0.00,,,0.90,weatherlink.com 1.10,2013-01-10 00:36:00,
2013-01-09 16:51:00,41.7,39.0,29.82,WSW,245,0.0,3.0,90,0.00,,,0.90,weatherlink.com 1.10,2013-01-10 00:51:00,
2013-01-09 17:06:00,41.3,39.0,29.82,South,170,2.0,4.0,90,0.00,,,0.90,weatherlink.com 1.10,2013-01-10 01:06:00,
2013-01-09 17:21:00,40.7,38.0,29.82,SW,215,0.0,4.0,91,0.00,,,0.90,weatherlink.com 1.10,2013-01-10 01:21:00,
2013-01-09 17:36:00,40.3,38.0,29.83,SSE,155,0.0,5.0,90,0.00,,,0.90,weatherlink.com 1.10,2013-01-10 01:36:00,
2013-01-09 17:51:00,39.6,37.0,29.84,SSE,148,0.0,4.0,91,0.00,,,0.90,weatherlink.com 1.10,2013-01-10 01:51:00,
2013-01-09 18:06:00,39.0,37.0,29.85,SSE,161,0.0,4.0,93,0.00,,,0.90,weatherlink.com 1.10,2013-01-10 02:06:00,
2013-01-09 18:21:00,38.8,37.0,29.85,SE,146,1.0,6.0,92,0.00,,,0.90,weatherlink.com 1.10,2013-01-10 02:21:00,
2013-01-09 18:36:00,38.1,37.0,29.86,SW,218,0.0,3.0,94,0.00,,,0.90,weatherlink.com 1.10,2013-01-10 02:36:00,
2013-01-09 18:51:00,37.6,36.0,29.86,WSW,250,0.0,1.0,95,0.00,,,0.90,weatherlink.com 1.10,2013-01-10 02:51:00,
2013-01-09 19:06:00,37.6,37.0,29.86,SE,143,0.0,1.0,96,0.00,,,0.90,weatherlink.com 1.10,2013-01-10 03:06:00,
2013-01-09 19:21:00,37.8,37.0,29.87,SSW,193,0.0,1.0,96,0.00,,,0.90,weatherlink.com 1.10,2013-01-10 03:21:00,
2013-01-09 19:36:00,37.8,37.0,29.87,SW,215,0.0,2.0,95,0.00,,,0.90,weatherlink.com 1.10,2013-01-10 03:36:00,
2013-01-09 19:51:00,37.9,37.0,29.88,SSE,159,0.0,2.0,95,0.00,,,0.90,weatherlink.com 1.10,2013-01-10 03:51:00,
2013-01-09 20:06:00,37.8,37.0,29.88,SSW,193,0.0,2.0,95,0.00,,,0.90,weatherlink.com 1.10,2013-01-10 04:06:00,
2013-01-09 20:21:00,37.7,36.0,29.89,SSE,148,0.0,2.0,95,0.00,,,0.90,weatherlink.com 1.10,2013-01-10 04:21:00,
2013-01-09 20:36:00,37.5,36.0,29.89,SSE,158,1.0,3.0,95,0.00,,,0.90,weatherlink.com 1.10,2013-01-10 04:36:00,
2013-01-09 20:51:00,37.0,36.0,29.90,SE,146,0.0,3.0,95,0.00,,,0.90,weatherlink.com 1.10,2013-01-10 04:51:00,
2013-01-09 21:06:00,36.2,35.0,29.89,SSE,168,0.0,5.0,96,0.00,,,0.90,weatherlink.com 1.10,2013-01-10 05:06:00,
2013-01-09 21:21:00,35.4,34.0,29.90,South,183,1.0,3.0,96,0.00,,,0.90,weatherlink.com 1.10,2013-01-10 05:21:00,
2013-01-09 21:52:00,34.6,34.0,29.91,SSW,200,0.0,0.0,97,0.00,,,0.90,weatherlink.com 1.10,2013-01-10 05:52:00,
2013-01-09 22:07:00,34.9,34.0,29.92,SSW,212,0.0,1.0,97,0.00,,,0.90,weatherlink.com 1.10,2013-01-10 06:07:00,
2013-01-09 22:22:00,35.1,34.0,29.92,SSW,210,0.0,3.0,97,0.00,,,0.90,weatherlink.com 1.10,2013-01-10 06:22:00,
2013-01-09 22:37:00,35.2,34.0,29.92,WSW,248,0.0,3.0,96,0.00,,,0.90,weatherlink.com 1.10,2013-01-10 06:37:00,
2013-01-09 22:52:00,35.5,35.0,29.93,WSW,258,0.0,3.0,96,0.00,,,0.90,weatherlink.com 1.10,2013-01-10 06:52:00,
2013-01-09 23:07:00,35.6,35.0,29.93,SW,229,0.0,3.0,96,0.00,,,0.90,weatherlink.com 1.10,2013-01-10 07:07:00,
2013-01-09 23:22:00,35.4,34.0,29.92,SSW,208,0.0,2.0,96,0.00,,,0.90,weatherlink.com 1.10,2013-01-10 07:22:00,
2013-01-09 23:37:00,35.0,34.0,29.93,SSW,203,1.0,3.0,96,0.00,,,0.90,weatherlink.com 1.10,2013-01-10 07:37:00,
2013-01-09 23:52:00,35.0,34.0,29.93,SSW,210,0.0,3.0,97,0.00,,,0.90,weatherlink.com 1.10,2013-01-10 07:52:00,